Andrews Air Force Base, MD

6:54 AM EST on February 13, 2016 (GMT -0500)
Andrews Air Force Base-Naf

Weather History for KADW - November, 2013

Change the Weather History Date:

Wednesday, November 6, 2013

  Actual Average Record
Temperature  
Mean Temperature 58 °F -  
Max Temperature 68 °F 57 °F 79 °F (2015)
Min Temperature 48 °F 37 °F 28 °F (2012)
Degree Days  
Heating Degree Days 7    
Growing Degree Days 8 (Base 50)    
Moisture  
Dew Point 50 °F    
Average Humidity 73    
Maximum Humidity 92    
Minimum Humidity 52    
Precipitation  
Precipitation 0.00 in - - ()
Sea Level Pressure  
Sea Level Pressure 30.30 in    
Wind  
Wind Speed 7 mph (South)    
Max Wind Speed 15 mph    
Max Gust Speed -    
Visibility 10 miles    
Events      
Averages and records for this station are not official NWS values.
T = Trace of Precipitation, MM = Missing Value Source: NWS Daily Summary

Daily Weather History Graph

Daily Weather History Graph

Search for Another Location

Airport or City:

Trip Planner

Search our weather history database for the weather conditions in past years. The results will help you decide how hot, cold, wet, or windy it might be!

Date:

Astronomy

Nov. 06, 2013 Rise Set
Actual Time 6:40 AM EST 5:01 PM EST
Civil Twilight 6:12 AM EST 5:29 PM EST
Nautical Twilight 5:40 AM EST 6:01 PM EST
Astronomical Twilight 5:09 AM EST 6:32 PM EST
Moon 9:52 AM EST (11/6) 8:04 PM EST (11/6)
Length of Visible Light 11h 17m
Length of Day
10h 21m
Waxing Crescent, 13% of the Moon is Illuminated
Nov 6
Waxing Crescent
Nov 10
First Quarter
Nov 17
Full
Nov 25
Last Quarter
Dec 2
New

Hourly Weather History & Observations

Time (EST) Temp. Dew Point Humidity Pressure Visibility Wind Dir Wind Speed Gust Speed Precip Events Conditions
12:58 AM 51.8 °F 46.9 °F 83% 30.48 in 10.0 mi SE 5.8 mph - N/A   Overcast
1:58 AM 51.6 °F 46.9 °F 84% 30.48 in 10.0 mi SE 3.5 mph - N/A   Overcast
2:58 AM 52.2 °F 46.9 °F 82% 30.46 in 10.0 mi SSE 3.5 mph - N/A   Overcast
3:58 AM 51.3 °F 47.3 °F 86% 30.44 in 10.0 mi ESE 3.5 mph - N/A   Overcast
4:58 AM 50.9 °F 47.3 °F 87% 30.43 in 10.0 mi South 3.5 mph - N/A   Overcast
5:58 AM 50.4 °F 47.3 °F 89% 30.43 in 10.0 mi South 2.3 mph - N/A   Overcast
6:58 AM 48.6 °F 46.2 °F 92% 30.42 in 10.0 mi SSE 3.5 mph - N/A   Overcast
7:58 AM 53.2 °F 48.9 °F 85% 30.41 in 10.0 mi SSW 3.5 mph - N/A   Overcast
8:58 AM 57.6 °F 49.8 °F 75% 30.39 in 10.0 mi SSE 10.4 mph - N/A   Mostly Cloudy
9:58 AM 60.8 °F 49.5 °F 66% 30.38 in 10.0 mi South 9.2 mph - N/A   Overcast
10:58 AM 64.0 °F 49.6 °F 59% 30.36 in 10.0 mi South 10.4 mph - N/A   Mostly Cloudy
11:58 AM 66.2 °F 51.1 °F 58% 30.33 in 10.0 mi South 11.5 mph - N/A   Clear
12:58 PM 66.4 °F 50.9 °F 57% 30.29 in 10.0 mi South 10.4 mph - N/A   Clear
1:58 PM 68.7 °F 50.2 °F 52% 30.26 in 10.0 mi South 15.0 mph - N/A   Clear
2:44 PM 68.0 °F 51.8 °F 56% 30.23 in 10.0 mi South 10.4 mph - N/A   Light Drizzle
2:53 PM 68.0 °F 51.8 °F 56% 30.22 in 10.0 mi SSW 9.2 mph - N/A   Clear
2:58 PM 67.6 °F 52.0 °F 57% 30.24 in 10.0 mi South 9.2 mph - 0.00 in   Clear
3:58 PM 65.3 °F 51.3 °F 60% 30.24 in 10.0 mi South 11.5 mph - N/A   Clear
4:58 PM 62.2 °F 51.3 °F 67% 30.22 in 10.0 mi South 9.2 mph - N/A   Clear
5:58 PM 60.4 °F 51.3 °F 72% 30.20 in 10.0 mi SSE 10.4 mph - N/A   Clear
6:58 PM 57.4 °F 50.5 °F 78% 30.20 in 10.0 mi SSE 8.1 mph - N/A   Clear
7:58 PM 55.9 °F 50.2 °F 81% 30.19 in 10.0 mi South 10.4 mph - N/A   Clear
8:58 PM 55.4 °F 50.0 °F 82% 30.16 in 10.0 mi South 9.2 mph - N/A   Scattered Clouds
9:58 PM 55.6 °F 49.1 °F 79% 30.15 in 10.0 mi South 6.9 mph - N/A   Clear
10:58 PM 55.6 °F 49.1 °F 79% 30.13 in 10.0 mi South 10.4 mph - N/A   Clear
11:58 PM 55.4 °F 50.7 °F 84% 30.10 in 10.0 mi South 11.5 mph - N/A   Clear